Prévision chaque heure sur Domdidier


  Conditions Température Point de rosée PrécipitationProbabilité d'orage Vent Pression UV Index Couverture nuageuse Visibilité
 05:44     21:29   La longueur du jour: 15:45 Aujourd'hui
01:00 18 °
Sensation de: 21.8°
14.7°   0%
0
Max: 5 km/h
1022.8 hPa   92% 20 km
02:00 17 °
Sensation de: 20.6°
14.5°   0%
0
Max: 5 km/h
1023.0 hPa   79% 19 km
03:00 17 °
Sensation de: 19.7°
14.2°   0%
0
Max: 5 km/h
1023.0 hPa   71% 18 km
04:00 16 °
Sensation de: 18.7°
13.8°   0%
0
Max: 5 km/h
1022.8 hPa   61% 17 km
05:00 16 °
Sensation de: 17.4°
13.4°   0%
0
Max: 5 km/h
1022.4 hPa   44% 17 km
06:00 15 °
Sensation de: 16.3°
12.9°   0%
0
Max: 5 km/h
1022.0 hPa   22% 16 km
07:00 16 °
Sensation de: 17.2°
13.2°   0%
1
Max: 6 km/h
1022.0 hPa   10% 16 km
08:00 18 °
Sensation de: 19.3°
13.7°   0%
3
Max: 14 km/h
1022.0 hPa 11% 16 km
09:00 21 °
Sensation de: 23.2°
14.3°   0%
4
Max: 21 km/h
1022.0 hPa 12% 16 km
10:00 23 °
Sensation de: 26.2°
14.6°   0%
6
Max: 23 km/h
1021.8 hPa 18% 17 km
11:00 26 °
Sensation de: 28.6°
14.7°   0%
7
Max: 25 km/h
1021.4 hPa 24% 17 km
12:00 27 °
Sensation de: 30.0°
14.7°   0%
8
Max: 27 km/h
1020.8 hPa 31% 18 km
13:00 28 °
Sensation de: 30.2°
14.7°   <20%
9
Max: 28 km/h
1020.4 hPa 32% 19 km
14:00 29 °
Sensation de: 30.4°
14.7°   <20%
10
Max: 29 km/h
1019.6 hPa 34% 19 km
15:00 30 °
Sensation de: 30.9°
14.7°   <20%
10
Max: 29 km/h
1019.2 hPa 35% 20 km
16:00 30 °
Sensation de: 31.7°
14.7°   <20%
10
Max: 29 km/h
1018.6 hPa 32% 21 km
17:00 30 °
Sensation de: 33.6°
14.9°   <20%
8
Max: 28 km/h
1018.6 hPa 45% 21 km
18:00 30 °
Sensation de: 33.6°
15.0°   <20%
8
Max: 27 km/h
1018.8 hPa 20% 21 km
19:00 30 °
Sensation de: 33.4°
15.0°   0%
7
Max: 26 km/h
1019.0 hPa 16% 21 km
20:00 27 °
Sensation de: 32.1°
15.0°   0%
6
Max: 24 km/h
1019.0 hPa 13% 21 km
21:00 25 °
Sensation de: 29.7°
15.1°   0%
4
Max: 20 km/h
1019.0 hPa   10% 21 km
22:00 22 °
Sensation de: 26.1°
15.2°   0%
3
Max: 14 km/h
1019.2 hPa   7% 20 km
23:00 19 °
Sensation de: 22.4°
15.2°   0%
3
Max: 10 km/h
1019.6 hPa   5% 19 km
 05:44     21:28   La longueur du jour: 15:44 Demain
00:00 18 °
Sensation de: 20.5°
15.0°   0%
2
Max: 8 km/h
1020.0 hPa   2% 18 km
01:00 17 °
Sensation de: 19.4°
14.6°   0%
1
Max: 6 km/h
1020.0 hPa   1% 18 km
02:00 16 °
Sensation de: 17.8°
14.1°   0%
1
Max: 5 km/h
1020.0 hPa   1% 17 km
03:00 16 °
Sensation de: 17.1°
13.5°   0%
0
Max: 5 km/h
1019.6 hPa   2% 17 km
04:00 15 °
Sensation de: 15.8°
12.9°   0%
0
Max: 5 km/h
1019.2 hPa   5% 16 km
05:00 14 °
Sensation de: 14.7°
12.3°   0%
0
Max: 5 km/h
1019.0 hPa   8% 16 km
06:00 14 °
Sensation de: 13.6°
11.7°   0%
0
Max: 5 km/h
1018.6 hPa   11% 16 km
07:00 15 °
Sensation de: 14.7°
12.2°   0%
1
Max: 5 km/h
1018.4 hPa   14% 16 km
08:00 17 °
Sensation de: 17.3°
13.1°   0%
2
Max: 9 km/h
1018.6 hPa 46% 16 km
09:00 19 °
Sensation de: 20.5°
14.0°   0%
4
Max: 18 km/h
1019.0 hPa 21% 16 km
10:00 22 °
Sensation de: 23.3°
14.5°   0%
6
Max: 23 km/h
1019.0 hPa 37% 17 km
11:00 23 °
Sensation de: 25.3°
15.1° 0.3 mm 0%
7
Max: 25 km/h
1018.8 hPa 52% 15 km
12:00 24 °
Sensation de: 26.1°
15.2°   <20%
9
Max: 28 km/h
1018.4 hPa 68% 18 km
13:00 25 °
Sensation de: 25.9°
15.1°   20-40%
11
Max: 30 km/h
1017.6 hPa 69% 19 km
14:00 25 °
Sensation de: 24.5°
15.3° 0.2 mm 20-40%
12
Max: 31 km/h
1017.2 hPa 70% 17 km
15:00 25 °
Sensation de: 22.7°
15.1°   <20%
14
Max: 33 km/h
1017.0 hPa 72% 20 km
16:00 25 °
Sensation de: 23.5°
14.8°   <20%
13
Max: 33 km/h
1017.0 hPa 65% 21 km
17:00 24 °
Sensation de: 23.4°
15.0°   <20%
12
Max: 31 km/h
1017.6 hPa 51% 20 km
18:00 24 °
Sensation de: 24.7°
14.8°   <20%
10
Max: 30 km/h
1018.4 hPa 37% 22 km
19:00 24 °
Sensation de: 24.2°
14.6°   <20%
10
Max: 29 km/h
1019.4 hPa 30% 22 km
20:00 23 °
Sensation de: 23.4°
14.6°   <20%
9
Max: 28 km/h
1019.8 hPa   46% 21 km
21:00 21 °
Sensation de: 20.6°
14.5°   0%
9
Max: 27 km/h
1020.4 hPa   28% 22 km
22:00 19 °
Sensation de: 17.8°
14.5°   0%
8
Max: 26 km/h
1021.0 hPa   26% 22 km
23:00 18 °
Sensation de: 16.8°
14.4° 0.3 mm 0%
7
Max: 24 km/h
1021.8 hPa   45% 21 km
 05:45     21:28   La longueur du jour: 15:43 Mardi 07 Juil
00:00 17 °
Sensation de: 14.8°
14.2°   0%
7
Max: 24 km/h
1022.6 hPa   20% 21 km